This demonstration page uses our WeatherBlox Daily Observations layout. Learn more.

Left ArrowRight Arrow

39.51506, -84.39828

Hourly Observations for February 25, 2019

Temp ( °F °C ) Dew Point ( °F °C ) Humidity (%) Winds ( mph kmh ) Pressure ( in mb ) Visibility ( mi km ) Precip ( " mm )
12:15 am 00:15 Clear 29 -1.7 15 -9.4 56 56 W 23 37 30.18 1022 10 16 0.00 0.00
12:35 am 00:35 Clear 29 -1.9 15 -9.6 56 56 W 17 28 30.18 1022 10 16 0.00 0.00
12:55 am 00:55 Clear 29 -1.9 16 -8.8 60 60 W 21 33 30.20 1023 10 16 0.00 0.00
1:15 am 01:15 Clear 28 -2.3 15 -9.7 57 57 WSW 20 31 30.21 1023 10 16 0.00 0.00
1:35 am 01:35 Clear 28 -2.4 14 -10.2 55 55 W 20 31 30.22 1023 10 16 0.00 0.00
1:55 am 01:55 Clear 27 -2.6 15 -9.5 59 59 WSW 12 19 30.22 1023 10 16 0.00 0.00
2:15 am 02:15 Clear 27 -2.7 16 -8.9 63 63 W 17 28 30.23 1024 10 16 0.00 0.00
2:35 am 02:35 Clear 27 -2.9 16 -9.1 63 63 WSW 18 30 30.23 1024 10 16 0.00 0.00
2:55 am 02:55 Clear 26 -3.1 12 -11.1 54 54 W 18 30 30.25 1025 10 16 0.00 0.00
3:15 am 03:15 Clear 26 -3.4 14 -10.1 60 60 W 18 30 30.26 1025 10 16 0.00 0.00
3:35 am 03:35 Clear 26 -3.5 15 -9.7 63 63 WSW 16 26 30.27 1025 10 16 0.00 0.00
3:55 am 03:55 Clear 25 -3.7 14 -9.8 63 63 W 17 28 30.29 1026 10 16 0.00 0.00
4:15 am 04:15 Clear 25 -4 13 -10.5 61 61 W 14 22 30.30 1026 10 16 0.00 0.00
4:35 am 04:35 Clear 24 -4.2 10 -12 55 55 W 20 31 30.31 1026 10 16 0.00 0.00
4:55 am 04:55 Clear 24 -4.3 11 -11.8 56 56 W 18 30 30.32 1027 10 16 0.00 0.00
5:15 am 05:15 Clear 24 -4.3 11 -11.8 56 56 W 21 33 30.34 1027 10 16 0.00 0.00
5:35 am 05:35 Clear 24 -4.6 12 -11.3 60 60 WSW 15 24 30.35 1028 10 16 0.00 0.00
5:55 am 05:55 Clear 24 -4.7 12 -11.2 61 61 W 21 33 30.36 1028 10 16 0.00 0.00
6:15 am 06:15 Clear 23 -5.1 10 -12.4 57 57 W 18 30 30.37 1028 10 16 0.00 0.00
6:35 am 06:35 Clear 22 -5.3 7 -14 51 51 W 14 22 30.39 1029 10 16 0.00 0.00
6:55 am 06:55 Clear 22 -5.5 6 -14.2 51 51 W 13 20 30.40 1029 10 16 0.00 0.00
7:15 am 07:15 Clear 22 -5.6 7 -13.9 52 52 W 18 30 30.41 1030 10 16 0.00 0.00
7:35 am 07:35 Sunny 22 -5.6 6 -14.7 49 49 W 13 20 30.42 1030 10 16 0.00 0.00
7:55 am 07:55 Sunny 22 -5.4 6 -14.6 49 49 WSW 13 20 30.43 1030 10 16 0.00 0.00
8:15 am 08:15 Sunny 23 -5 8 -13.4 52 52 WSW 17 28 30.44 1031 10 16 0.00 0.00
8:35 am 08:35 Sunny 24 -4.7 7 -14.1 48 48 W 15 24 30.45 1031 10 16 0.00 0.00
8:55 am 08:55 Sunny 24 -4.3 7 -13.7 48 48 W 14 22 30.47 1032 10 16 0.00 0.00
9:15 am 09:15 Sunny 24 -4.2 4 -15.3 42 42 W 20 31 30.48 1032 10 16 0.00 0.00
9:35 am 09:35 Sunny 25 -3.8 5 -14.9 42 42 W 14 22 30.49 1032 10 16 0.00 0.00
9:55 am 09:55 Sunny 26 -3.3 7 -13.8 44 44 WSW 16 26 30.48 1032 10 16 0.00 0.00
10:15 am 10:15 Sunny 27 -2.8 8 -13.6 44 44 W 14 22 30.49 1033 10 16 0.00 0.00
10:35 am 10:35 Sunny 28 -2.4 8 -13.5 43 43 W 16 26 30.49 1033 10 16 0.00 0.00
10:55 am 10:55 Sunny 28 -2.5 6 -14.4 40 40 WNW 15 24 30.51 1033 10 16 0.00 0.00
11:15 am 11:15 Sunny 29 -1.6 6 -14.3 38 38 WSW 18 30 30.51 1033 10 16 0.00 0.00
11:35 am 11:35 Sunny 30 -1.3 6 -14.5 36 36 W 14 22 30.51 1033 10 16 0.00 0.00
11:55 am 11:55 Sunny 31 -0.6 6 -14.2 35 35 SW 12 19 30.51 1033 10 16 0.00 0.00
12:15 pm 12:15 Sunny 32 0 5 -14.9 32 32 WNW 13 20 30.51 1033 10 16 0.00 0.00
12:35 pm 12:35 Sunny 33 0.4 4 -15.7 29 29 WNW 13 20 30.50 1033 10 16 0.00 0.00
12:55 pm 12:55 Sunny 33 0.8 5 -15 30 30 W 10 17 30.49 1033 10 16 0.00 0.00
1:15 pm 13:15 Sunny 34 1 4 -15.3 29 29 W 12 19 30.49 1033 10 16 0.00 0.00
1:35 pm 13:35 Sunny 34 1.3 5 -14.8 29 29 W 9 15 30.48 1032 10 16 0.00 0.00
1:55 pm 13:55 Sunny 35 1.9 7 -14.1 30 30 W 9 15 30.48 1032 10 16 0.00 0.00
2:15 pm 14:15 Sunny 35 1.7 5 -15 28 28 W 5 7 30.48 1032 10 16 0.00 0.00
2:35 pm 14:35 Sunny 36 2.3 5 -14.9 27 27 W 13 20 30.48 1032 10 16 0.00 0.00
2:55 pm 14:55 Sunny 36 2.3 5 -15 27 27 WSW 12 19 30.48 1032 10 16 0.00 0.00
3:15 pm 15:15 Sunny 37 2.6 7 -13.9 29 29 W 13 20 30.47 1032 10 16 0.00 0.00
3:35 pm 15:35 Sunny 37 2.6 6 -14.6 27 27 WNW 10 17 30.48 1032 10 16 0.00 0.00
3:55 pm 15:55 Sunny 37 2.8 6 -14.5 27 27 W 12 19 30.47 1032 10 16 0.00 0.00
4:15 pm 16:15 Sunny 37 2.9 7 -13.7 29 29 WSW 10 17 30.47 1032 10 16 0.00 0.00
4:35 pm 16:35 Sunny 37 2.9 7 -13.8 28 28 W 7 11 30.47 1032 10 16 0.00 0.00
4:55 pm 16:55 Mostly Cloudy 37 2.7 6 -14.5 27 27 WNW 7 11 30.47 1032 10 16 0.00 0.00
5:15 pm 17:15 Cloudy 37 2.8 6 -14.2 28 28 W 7 11 30.46 1031 10 16 0.00 0.00
5:35 pm 17:35 Mostly Cloudy 36 2.3 6 -14.4 28 28 SW 7 11 30.45 1031 10 16 0.00 0.00
5:55 pm 17:55 Sunny 36 2 8 -13.3 32 32 W 6 9 30.46 1031 10 16 0.00 0.00
6:15 pm 18:15 Sunny 34 1.1 9 -12.6 36 36 W 3 6 30.46 1032 10 16 0.00 0.00
6:35 pm 18:35 Clear 34 1.1 8 -13.1 34 34 Calm 30.45 1031 10 16 0.00 0.00
6:55 pm 18:55 Clear 32 0.2 14 -10 47 47 Calm 30.47 1032 10 16 0.00 0.00
7:15 pm 19:15 Clear 29 -1.7 17 -8.4 61 61 Calm 30.47 1032 10 16 0.00 0.00
7:35 pm 19:35 Clear 29 -1.8 16 -9 58 58 Calm 30.48 1032 10 16 0.00 0.00
7:55 pm 19:55 Cloudy 29 -1.8 17 -8.6 60 60 Calm 30.47 1032 10 16 0.00 0.00
8:15 pm 20:15 Cloudy 29 -1.9 18 -7.9 64 64 Calm 30.47 1032 10 16 0.00 0.00
8:35 pm 20:35 Cloudy 29 -1.6 17 -8.5 60 60 Calm 30.47 1032 10 16 0.00 0.00
8:55 pm 20:55 Cloudy 29 -1.6 19 -7.2 66 66 Calm 30.47 1032 10 16 0.00 0.00
9:15 pm 21:15 Cloudy 30 -1.3 19 -7.5 63 63 Calm 30.47 1032 10 16 0.00 0.00
9:35 pm 21:35 Cloudy 29 -1.5 17 -8.3 60 60 Calm 30.46 1031 10 16 0.00 0.00
9:55 pm 21:55 Cloudy 29 -1.6 19 -7.5 64 64 Calm 30.46 1031 10 16 0.00 0.00
10:15 pm 22:15 Cloudy 29 -1.7 18 -8 63 63 Calm 30.47 1032 10 16 0.00 0.00
10:35 pm 22:35 Cloudy 29 -1.9 20 -6.7 70 70 Calm 30.46 1032 10 16 0.00 0.00
10:55 pm 22:55 Cloudy 27 -2.6 20 -6.9 73 73 Calm 30.46 1032 10 16 0.00 0.00
11:15 pm 23:15 Cloudy 28 -2.4 20 -6.5 74 74 Calm 30.46 1032 10 16 0.00 0.00
11:35 pm 23:35 Cloudy 28 -2.3 20 -6.7 72 72 N 3 6 30.47 1032 10 16 0.00 0.00
11:55 pm 23:55 Cloudy 28 -2.1 20 -6.7 71 71 N 3 6 30.47 1032 10 16 0.00 0.00

Powered by AerisWeather